This is the latest recevied weather packets stored in our database for station/object WX6HNX-14. If no packets are shown the sender has not sent any weather packets the latest 10 day(s).
| Time | Temp. | Humidity | Pressure | Rain* | Wind** | Luminosity | Snow |
|---|---|---|---|---|---|---|---|
| 1777664784 | 27.78° C | 40% | 1012.5 hPa | 0 mm | - | - | - |
| 1777664483 | 28.33° C | 40% | 1012.6 hPa | 0 mm | - | - | - |
| 1777664184 | 27.78° C | 41% | 1012.8 hPa | 0 mm | - | - | - |
| 1777663884 | 27.78° C | 40% | 1012.8 hPa | 0 mm | - | - | - |
| 1777663583 | 27.22° C | 42% | 1012.8 hPa | 0 mm | - | - | - |
| 1777663284 | 27.22° C | 42% | 1012.9 hPa | 0 mm | - | - | - |
| 1777662983 | 27.22° C | 42% | 1013.1 hPa | 0 mm | - | - | - |
| 1777662683 | 27.22° C | 42% | 1013.2 hPa | 0 mm | - | - | - |
| 1777662227 | 27.22° C | 43% | 1013.3 hPa | 0 mm | - | - | - |
| 1777661927 | 27.22° C | 43% | 1013.4 hPa | 0 mm | - | - | - |
| 1777661627 | 27.22° C | 44% | 1013.5 hPa | 0 mm | - | - | - |
| 1777661327 | 26.67° C | 44% | 1013.5 hPa | 0 mm | - | - | - |
| 1777661027 | 26.67° C | 43% | 1013.6 hPa | 0 mm | - | - | - |
| 1777660727 | 26.67° C | 44% | 1013.7 hPa | 0 mm | - | - | - |
| 1777660133 | 26.11° C | 44% | 1013.8 hPa | 0 mm | - | - | - |
| 1777659835 | 26.11° C | 45% | 1013.8 hPa | 0 mm | - | - | - |
| 1777659533 | 26.67° C | 44% | 1013.9 hPa | 0 mm | - | - | - |
| 1777658933 | 26.11° C | 45% | 1014 hPa | 0 mm | - | - | - |
| 1777658633 | 25.56° C | 45% | 1014.1 hPa | 0 mm | - | - | - |
| 1777658033 | 25.56° C | 45% | 1014 hPa | 0 mm | - | - | - |
| 1777657732 | 25.56° C | 46% | 1014 hPa | 0 mm | - | - | - |
| 1777657433 | 25.56° C | 45% | 1014.1 hPa | 0 mm | - | - | - |
| 1777657133 | 25° C | 45% | 1014.1 hPa | 0 mm | - | - | - |
| 1777656832 | 25° C | 45% | 1014.2 hPa | 0 mm | - | - | - |
| 1777656533 | 24.44° C | 46% | 1014.2 hPa | 0 mm | - | - | - |
* Rain latest hour (hover to see other rain measurements)
** Current wind speed in m/s (hover to see current wind gust speed)